Vertical_Velocity
-0 2 3 4 3 2 0 -1 -1 1 -0 -1 -2 -3 -2 -0 -2 1 -2 5 0 -2 1 1 -2 2 -3 0 1 3 7 -1 -13 7 -20 -8 8 -7 -15 9 2 -16 13 -14 0
0 -1 -1 -0 1 5 -1 -0 1 -2 -1 -1 -2 -3 -4 -1 -1 -1 6 -3 -0 -2 4 5 5 -3 -0 -0 2 10 7 -11 -6 -3 -5 -5 9 -1 17 2 -5 -3 10 0 -11
1 -1 -2 0 3 -0 7 3 1 -1 -1 -4 2 -4 -2 -4 0 12 -1 -7 -3 -0 -1 -1 -7 -0 5 1 -7 -6 -2 -5 -11 -3 4 -1 2 -4 5 -1 -7 -11 -6 19 -10
0 -1 4 3 -2 6 14 3 3 -2 -1 -4 -1 -2 -1 -4 10 -2 -1 -3 2 -1 -4 1 2 4 3 4 -7 19 -3 3 -13 -7 6 -0 -1 -3 8 -22 -9 2 7 -13 1
-3 -0 3 1 -0 1 5 7 5 -0 3 -2 -7 -5 -4 3 -7 0 -2 -5 0 -3 3 2 1 3 2 2 5 10 -5 0 -3 3 -4 4 -4 -9 -5 -6 -5 -6 -4 15 -8
-1 -2 -4 -3 -1 6 10 -0 -1 -4 4 6 3 -6 -2 5 -3 -3 -4 -1 -1 -4 1 -1 1 1 0 0 11 -2 1 -3 1 -6 1 12 -10 31 -22 -2 6 7 -4 -14 4
-4 -4 -2 -6 -3 3 15 11 5 -9 -3 1 0 -0 -0 -7 -5 1 -1 -1 4 -2 -0 1 -2 8 4 -1 -8 -0 7 -2 -5 -8 -8 7 4 -3 -13 10 3 -10 4 5 -19
-1 -4 -1 0 -1 2 11 12 -2 0 -0 -1 -0 3 -2 -7 -3 -1 0 -2 -5 -1 -2 -2 -2 2 13 -5 -4 11 12 7 -10 3 -21 23 -18 -12 -5 9 -5 -0 2 -5 -11
-0 -2 -3 0 1 11 4 -8 6 -8 4 -3 -0 -0 5 -7 -2 0 2 -2 4 1 -5 -1 11 -1 7 7 3 1 -2 2 -6 -2 -1 9 -10 -15 8 2 -1 -1 0 -4 6
3 -1 -6 -1 -4 7 8 0 -4 -3 0 10 -0 8 2 3 1 -2 1 -5 -3 3 6 9 7 4 4 8 -5 -1 2 -1 -1 -10 8 4 -5 -1 4 4 -0 -5 1 -6 4
-4 -0 -4 -1 -4 25 -10 9 -1 -2 7 -13 -0 3 0 -2 -1 2 -3 -2 2 6 4 -1 6 -3 -8 -4 -3 2 4 2 -4 -7 9 -5 -1 -3 0 -3 0 -0 1 6 -2
-1 1 -4 -5 2 40 15 -0 -7 -10 4 -2 -0 1 -2 -2 3 1 -9 3 6 -1 3 7 -2 -9 1 1 5 2 2 -6 -6 -1 10 2 -4 -1 -0 -1 2 1 -0 -1 5
-5 -4 -0 -6 -1 8 0 -8 3 0 5 3 -3 1 2 0 -0 6 -6 2 3 4 -0 4 -13 1 4 -1 5 -2 2 -2 2 1 3 0 1 1 -3 -0 -2 -1 -1 0 12
-4 -5 3 -5 5 7 -3 -2 6 4 4 7 4 7 1 2 -0 4 -3 5 1 1 1 1 -7 2 1 1 3 4 -2 0 -1 1 1 3 2 1 -1 -3 1 -0 2 2 10
1 -5 -1 -0 8 -9 14 11 -9 8 8 16 9 -5 -0 -0 -1 1 -3 0 -0 -1 1 -4 -1 0 1 -2 3 -1 -2 -2 -0 0 -3 4 6 5 -1 -0 1 2 5 3 6
3 1 0 4 -0 2 7 8 4 14 4 4 1 1 2 2 3 3 0 1 1 2 3 -5 -1 2 3 -1 2 -2 2 3 2 1 -0 1 4 4 -0 1 -1 1 0 7 5
-5 -0 2 5 -9 2 1 -3 10 8 5 6 -0 1 -1 1 5 2 1 3 3 5 1 -1 0 -2 2 -1 -3 2 4 1 5 2 4 -0 -4 7 -0 -1 1 1 5 5 7
25 -4 -2 -13 6 5 -5 5 9 3 -0 2 -1 3 -1 -2 -0 -0 1 0 -0 3 1 2 3 0 2 -1 -1 -2 4 5 2 1 3 1 1 6 1 2 -1 -1 4 5 2
6 6 3 -5 2 8 0 5 5 -1 -4 -2 8 -0 2 3 -1 2 0 1 -0 1 5 1 0 -3 2 0 2 0 2 5 1 -0 -6 2 6 5 1 2 1 2 1 2 -0
-8 16 6 -2 -5 20 1 1 0 1 -0 2 -4 0 -1 0 6 6 1 3 -0 1 0 0 1 0 -3 2 0 3 5 4 0 1 0 2 2 6 3 4 2 1 3 1 2
-23 -11 22 10 12 -3 1 2 0 0 2 1 0 0 -0 -2 -1 1 1 1 -0 -0 0 2 1 -3 1 -1 4 -2 -2 -0 2 1 0 -1 6 4 1 1 1 2 2 1 -1
-3 -7 25 9 -8 -0 0 2 0 2 -0 1 -1 -0 -1 -0 -0 -1 0 -1 0 1 1 4 3 -0 3 0 0 1 4 2 3 1 1 -3 9 -0 0 0 -2 2 1 1 0
-10 2 0 -6 0 1 2 1 -2 0 1 0 0 1 -0 -1 -0 -2 0 3 -1 -0 4 4 1 1 4 5 1 -1 0 1 0 -1 2 2 11 1 1 1 2 -1 0 -0 -2
-3 -1 -1 -4 -1 -2 -1 3 1 -1 1 -0 0 -1 -0 -1 1 1 2 2 -1 1 -1 2 -0 3 6 7 4 -2 -2 -0 -1 -3 5 5 5 8 3 0 2 2 0 -1 -0
-3 4 -4 2 3 -1 -2 -2 -0 1 -0 -1 0 -0 -0 -0 1 1 0 3 2 -1 1 2 -1 -1 2 1 -1 2 1 0 -3 5 -4 7 -2 -1 -2 -2 -2 -1 1 1 1
-4 -0 2 2 -3 -2 1 6 -1 3 3 3 -4 1 -1 -2 3 1 -2 -0 4 -0 -0 -0 1 -0 1 -0 -1 -1 0 -0 -0 0 -1 -1 4 -3 0 4 2 -0 -3 -1 3
0 0 2 2 1 -3 4 3 3 0 2 4 2 -5 -4 9 1 4 0 1 2 3 0 -1 -1 -0 1 0 0 1 5 1 1 -0 5 2 6 0 3 1 -0 1 -0 -1 -1
Height
1505 1503 1502 1500 1498 1496 1494 1494 1494 1493 1491 1490 1490 1489 1490 1489 1487 1488 1489 1488 1489 1488 1488 1488 1490 1491 1492 1492 1491 1490 1486 1474 1469 1466 1463 1461 1457 1456 1460 1463 1465 1467 1467 1471 1469
1499 1497 1497 1495 1494 1491 1488 1489 1489 1489 1489 1488 1487 1485 1486 1487 1486 1485 1486 1483 1485 1486 1489 1489 1489 1490 1490 1490 1489 1486 1475 1471 1470 1463 1460 1459 1458 1456 1458 1459 1463 1466 1464 1469 1467
1493 1491 1490 1490 1488 1487 1485 1484 1483 1485 1485 1484 1484 1483 1485 1485 1485 1484 1481 1481 1485 1486 1488 1488 1487 1489 1486 1487 1487 1481 1474 1470 1466 1466 1464 1460 1456 1456 1455 1457 1458 1462 1464 1464 1464
1490 1487 1484 1483 1483 1482 1481 1480 1479 1480 1480 1479 1480 1481 1483 1485 1481 1482 1481 1483 1484 1487 1487 1488 1486 1486 1483 1479 1481 1480 1475 1472 1471 1469 1464 1463 1461 1455 1453 1454 1458 1458 1460 1460 1462
1487 1484 1479 1476 1475 1476 1475 1475 1474 1476 1476 1474 1475 1478 1483 1484 1481 1479 1481 1483 1484 1486 1488 1486 1485 1484 1480 1476 1475 1472 1472 1469 1469 1467 1465 1464 1459 1457 1453 1453 1455 1457 1456 1456 1457
1484 1480 1476 1471 1469 1469 1470 1469 1470 1471 1473 1472 1471 1474 1481 1483 1477 1478 1478 1481 1483 1484 1487 1487 1485 1484 1481 1478 1474 1472 1469 1465 1464 1464 1462 1461 1458 1457 1451 1451 1451 1453 1455 1458 1458
1480 1476 1471 1467 1464 1463 1463 1464 1465 1466 1470 1473 1471 1473 1477 1477 1475 1477 1477 1479 1482 1483 1485 1485 1484 1485 1479 1478 1475 1473 1471 1468 1462 1461 1460 1461 1454 1450 1448 1449 1448 1450 1451 1452 1455
1476 1473 1469 1463 1460 1460 1458 1461 1461 1464 1466 1470 1470 1476 1472 1471 1473 1474 1475 1477 1480 1481 1482 1483 1482 1481 1480 1479 1474 1470 1466 1465 1450 1452 1453 1459 1448 1438 1446 1445 1445 1445 1447 1449 1450
1472 1469 1466 1462 1458 1457 1457 1460 1460 1462 1465 1468 1472 1473 1469 1468 1470 1472 1474 1476 1478 1478 1478 1479 1479 1477 1476 1474 1473 1464 1458 1449 1443 1442 1446 1451 1440 1437 1435 1439 1440 1441 1442 1446 1447
1470 1467 1464 1461 1456 1455 1454 1457 1460 1461 1465 1469 1470 1475 1468 1468 1468 1470 1471 1472 1475 1475 1474 1475 1476 1471 1468 1467 1461 1451 1451 1447 1435 1434 1438 1440 1438 1431 1437 1434 1435 1440 1439 1443 1446
1466 1464 1461 1459 1456 1455 1453 1455 1463 1465 1463 1461 1462 1462 1465 1466 1467 1468 1469 1472 1473 1472 1469 1467 1470 1463 1456 1455 1452 1455 1456 1448 1443 1430 1432 1434 1432 1430 1440 1441 1440 1434 1434 1437 1442
1463 1460 1458 1458 1455 1453 1451 1452 1452 1455 1457 1457 1461 1462 1463 1465 1466 1466 1469 1472 1469 1465 1462 1465 1460 1450 1451 1449 1450 1451 1449 1440 1436 1431 1433 1429 1431 1429 1438 1443 1442 1438 1436 1438 1444
1457 1456 1454 1455 1452 1450 1450 1451 1454 1454 1452 1456 1459 1460 1462 1464 1463 1464 1469 1468 1467 1460 1457 1456 1447 1449 1454 1452 1447 1446 1442 1436 1433 1427 1431 1431 1443 1441 1438 1441 1441 1440 1441 1441 1440
1451 1451 1451 1452 1454 1450 1449 1451 1453 1455 1452 1453 1457 1457 1460 1461 1462 1464 1467 1470 1464 1459 1456 1454 1448 1450 1448 1448 1447 1442 1430 1437 1431 1422 1425 1426 1433 1444 1442 1440 1439 1441 1441 1441 1438
1445 1446 1448 1449 1450 1449 1450 1450 1452 1456 1435 1450 1454 1456 1458 1460 1463 1464 1465 1467 1462 1459 1464 1453 1448 1444 1443 1445 1437 1437 1431 1430 1433 1432 1431 1431 1425 1443 1447 1440 1439 1440 1440 1443 1441
1438 1439 1442 1444 1446 1446 1447 1451 1455 1452 1431 1450 1451 1454 1457 1459 1460 1464 1465 1467 1463 1460 1457 1454 1446 1444 1443 1438 1434 1436 1434 1433 1430 1427 1427 1435 1426 1440 1452 1450 1445 1445 1448 1444 1441
1426 1431 1436 1439 1443 1445 1448 1451 1447 1430 1443 1449 1446 1449 1453 1455 1459 1463 1462 1461 1456 1454 1452 1440 1446 1448 1446 1442 1437 1434 1430 1426 1419 1418 1428 1439 1427 1451 1454 1448 1449 1451 1450 1447 1444
1401 1415 1425 1434 1440 1444 1449 1452 1432 1430 1440 1440 1440 1447 1453 1454 1460 1458 1455 1454 1452 1449 1443 1442 1439 1447 1443 1438 1430 1432 1426 1425 1418 1416 1432 1433 1445 1453 1454 1452 1451 1451 1450 1449 1451
1379 1397 1417 1428 1438 1444 1449 1439 1429 1434 1437 1435 1441 1446 1451 1451 1456 1458 1455 1449 1450 1450 1448 1444 1443 1445 1440 1435 1434 1425 1422 1417 1412 1408 1420 1440 1450 1451 1453 1454 1455 1455 1452 1452 1453
1390 1402 1418 1429 1439 1446 1450 1437 1438 1436 1433 1434 1435 1440 1441 1445 1448 1449 1446 1453 1452 1450 1449 1450 1443 1443 1435 1434 1430 1430 1426 1420 1413 1422 1430 1435 1435 1443 1448 1453 1455 1458 1456 1457 1458
1408 1413 1430 1434 1443 1449 1443 1442 1440 1440 1436 1437 1435 1438 1435 1440 1438 1443 1457 1455 1451 1446 1446 1443 1441 1440 1433 1435 1435 1428 1422 1417 1416 1420 1413 1428 1445 1440 1447 1450 1454 1459 1462 1463 1467
1415 1423 1438 1441 1448 1448 1443 1441 1440 1441 1441 1442 1441 1436 1436 1439 1441 1441 1449 1452 1449 1447 1442 1443 1437 1439 1438 1435 1437 1435 1429 1420 1416 1424 1418 1416 1447 1447 1449 1454 1459 1465 1467 1468 1469
1428 1437 1444 1446 1445 1446 1442 1442 1441 1441 1442 1442 1443 1444 1442 1441 1443 1442 1445 1450 1449 1446 1445 1444 1438 1440 1434 1433 1430 1431 1428 1423 1421 1420 1430 1420 1446 1450 1455 1459 1464 1467 1469 1470 1471
1433 1442 1449 1449 1448 1443 1440 1440 1442 1446 1446 1447 1446 1444 1441 1440 1438 1444 1446 1449 1449 1448 1449 1446 1445 1447 1442 1450 1444 1437 1433 1427 1425 1428 1423 1432 1445 1452 1458 1462 1468 1471 1470 1472 1474
1437 1446 1448 1449 1447 1448 1445 1442 1444 1446 1448 1448 1446 1443 1441 1444 1442 1446 1446 1448 1450 1450 1448 1445 1454 1456 1450 1448 1446 1443 1440 1437 1439 1434 1436 1440 1443 1451 1457 1462 1466 1469 1473 1475 1476
1442 1445 1448 1450 1454 1449 1449 1447 1449 1452 1452 1449 1449 1445 1442 1446 1442 1448 1446 1446 1450 1447 1448 1448 1457 1456 1453 1449 1447 1450 1448 1444 1444 1441 1440 1440 1446 1449 1455 1459 1466 1468 1470 1471 1472
1443 1446 1448 1452 1453 1450 1451 1453 1454 1454 1458 1455 1453 1452 1454 1456 1454 1453 1453 1454 1454 1452 1450 1450 1453 1454 1455 1451 1449 1444 1457 1453 1452 1450 1449 1443 1452 1451 1459 1463 1466 1468 1471 1472 1471